Temperature
20 19 19 19 19 18 18 18 18 18 18 18 17 17 17 17 17 17 17 16 16 16 16 16 16 16 15 15 15 15 15 15 16 16 15 15 14 14 14 14 14 14 14
19 19 19 18 18 18 18 18 17 17 17 17 17 17 17 17 17 17 16 16 16 16 16 16 15 15 15 15 15 15 15 15 15 15 15 15 14 14 14 14 14 14 14
19 19 19 18 18 18 18 17 17 17 17 17 17 17 17 17 16 16 16 16 16 15 15 15 15 15 15 15 15 15 15 15 14 14 15 15 14 14 14 14 14 14 14
19 18 18 18 18 18 17 17 17 17 17 17 16 16 16 16 16 16 16 16 15 15 15 15 15 15 15 15 15 14 14 14 14 14 15 15 14 14 14 14 14 14 14
18 18 18 18 17 17 17 17 17 17 17 16 16 16 16 16 16 16 15 15 15 15 15 15 15 15 15 15 14 14 14 14 14 14 15 15 14 14 14 14 14 14 14
18 18 18 17 17 17 17 17 17 16 16 16 16 16 15 15 15 15 15 15 14 14 14 14 14 14 15 14 14 14 14 13 14 14 14 14 14 14 13 13 13 13 14
18 18 17 17 17 17 17 17 17 16 16 16 15 15 15 15 15 15 15 14 14 14 14 14 14 14 14 14 14 14 13 14 13 13 13 13 13 13 13 13 13 13 13
18 17 17 17 17 17 17 16 16 16 16 15 15 15 15 15 15 15 15 14 14 14 13 13 13 13 13 13 13 13 13 13 13 13 13 13 12 13 12 12 12 13 13
17 17 17 17 17 17 16 16 16 16 15 15 15 15 15 15 15 15 14 14 13 13 13 13 13 13 13 13 13 13 13 13 13 13 13 13 13 12 12 12 12 12 13
17 17 16 17 16 16 16 16 16 15 15 15 15 15 15 14 14 14 14 13 13 13 13 13 13 13 13 13 13 12 12 12 12 12 12 12 12 12 12 12 12 12 13
17 17 16 16 16 16 16 15 15 15 15 14 14 14 14 14 14 14 14 14 13 13 13 13 13 13 13 13 13 12 12 12 12 12 12 12 12 12 12 12 12 12 12
17 16 16 16 16 16 15 15 15 15 14 14 14 14 14 14 14 14 14 14 13 13 13 13 13 13 13 13 12 12 12 12 12 12 12 12 12 12 12 12 12 12 12
16 16 16 15 15 15 15 15 15 14 14 14 14 14 14 14 14 13 13 13 13 13 13 13 13 13 13 12 12 12 12 12 12 12 12 12 12 12 11 11 11 11 11
16 16 15 15 15 15 15 14 14 14 14 14 14 14 14 13 13 13 13 13 13 13 12 12 13 12 12 12 12 12 12 11 11 12 12 12 11 12 11 11 11 11 11
15 15 15 15 15 14 14 14 14 14 14 13 13 13 13 13 13 13 13 12 12 12 12 12 12 12 12 12 12 12 12 12 11 11 11 11 11 11 11 11 11 11 11
15 15 15 15 14 14 14 14 14 13 13 13 13 13 12 12 12 13 13 12 12 12 12 12 12 12 12 12 12 12 12 11 11 11 11 11 11 11 11 11 11 11 11
14 14 14 14 14 14 13 13 13 13 13 13 13 12 12 12 12 12 12 12 12 12 12 12 12 12 12 12 11 11 11 11 11 11 11 11 11 11 11 11 11 11 10
14 14 14 13 13 13 13 13 13 13 13 13 13 12 12 12 12 12 12 12 12 12 12 11 12 11 11 11 11 11 11 11 10 10 10 10 10 10 10 10 10 10 10
14 13 13 13 13 13 13 13 13 13 13 13 12 12 12 12 12 12 12 11 12 12 11 11 11 11 11 11 10 10 10 10 10 10 10 10 10 10 10 10 10 10 9
13 13 13 13 13 13 13 13 13 12 12 12 12 12 12 12 12 12 11 11 11 11 11 11 11 11 11 10 10 10 10 10 10 10 9 9 9 9 9 9 9 9 9
13 13 12 12 13 13 12 12 12 12 12 12 12 12 11 11 12 11 11 11 11 11 11 11 11 10 10 10 10 10 9 10 9 9 9 9 9 9 9 9 9 9 9
13 13 13 12 12 12 12 12 12 12 12 12 12 12 11 11 11 11 11 11 11 10 10 10 10 10 10 10 9 9 9 9 9 9 9 9 9 9 9 9 9 9 9
12 12 12 12 12 12 12 12 12 12 11 11 11 11 11 11 11 11 10 10 10 10 10 10 10 9 9 9 9 9 8 8 8 8 8 8 8 8 8 8 8 8 8
12 12 12 12 12 12 11 11 11 11 11 11 11 11 11 10 10 10 10 10 10 10 9 9 9 9 9 9 8 8 8 8 8 8 8 8 8 8 8 8 8 8 8
11 11 11 11 11 11 11 11 11 10 10 10 10 10 10 10 10 10 10 9 9 9 9 9 9 8 8 8 8 8 8 8 8 8 8 7 7 7 7 7 7 7 7
11 11 11 11 10 10 10 10 10 10 10 10 10 10 10 9 9 9 9 9 9 8 8 8 8 8 8 8 8 8 8 8 8 7 7 7 7 7 7 7 7 7 7
Wind_Speed
5 4 3 3 2 2 2 2 2 2 2 3 3 2 2 2 2 2 3 3 4 3 3 3 4 4 4 4 4 4 4 5 6 5 4 3 3 5 3 4 5 5 5
4 4 3 3 2 2 1 1 2 2 2 2 2 2 2 2 2 3 3 4 4 4 4 4 5 4 4 5 4 5 4 5 6 7 5 4 4 5 5 6 5 5 5
4 4 3 3 2 2 2 2 2 2 2 2 2 2 3 3 3 3 3 4 5 5 5 5 5 5 5 5 5 5 5 5 6 7 7 4 5 4 5 6 6 5 6
4 4 3 3 2 2 2 2 2 2 2 2 2 3 3 3 3 3 3 4 4 4 5 5 5 5 6 6 6 6 6 7 6 7 7 5 5 4 5 5 5 4 5
4 4 4 3 3 2 2 2 2 2 2 2 2 2 2 3 2 3 4 4 4 4 4 5 4 4 4 5 6 6 6 7 7 6 7 6 5 4 5 5 6 5 5
5 4 3 3 3 3 2 2 2 2 2 2 2 3 3 3 3 3 4 4 4 5 5 5 4 4 4 5 6 7 7 8 8 7 7 6 6 6 5 6 6 6 6
4 4 4 3 3 3 3 2 3 3 2 2 3 3 3 2 1 2 4 5 5 4 5 5 5 4 4 5 5 8 8 8 9 9 8 8 7 6 6 7 6 7 7
4 4 4 4 4 3 3 3 3 3 2 2 3 2 2 1 0 2 4 5 5 5 5 5 5 5 5 6 6 6 6 6 6 7 7 8 7 6 7 8 8 7 7
4 4 4 4 4 4 4 3 4 3 3 3 2 2 2 2 0 2 5 5 4 5 5 5 5 5 4 6 6 6 6 6 4 5 6 7 7 7 7 6 7 7 6
3 4 4 4 4 4 3 3 3 3 3 3 2 3 3 3 1 2 4 4 4 4 4 4 2 3 3 4 5 6 6 6 6 5 5 7 8 8 8 8 7 7 6
2 2 3 3 3 3 2 2 2 3 3 3 3 3 3 3 2 2 4 4 4 5 4 4 2 2 1 4 5 5 6 7 7 6 5 5 5 5 5 6 6 7 7
2 2 2 3 3 2 2 2 2 3 3 4 4 4 3 3 2 2 3 5 6 4 4 4 3 2 2 4 4 5 7 8 6 5 4 4 4 4 4 4 5 6 6
2 3 3 3 2 2 2 2 3 3 4 4 3 3 3 3 2 4 4 5 5 4 4 3 3 4 5 5 5 6 6 4 4 4 4 4 4 4 4 3 3 4 6
3 2 3 3 3 2 2 3 3 3 4 3 3 4 4 3 3 2 2 3 5 5 4 3 5 7 6 5 4 4 4 3 4 5 5 5 4 4 3 3 4 3 4
2 2 3 3 3 2 3 2 3 2 2 3 4 4 4 4 3 4 3 3 3 3 4 4 4 3 4 4 4 3 4 4 4 5 5 5 4 4 4 3 3 4 4
2 2 3 3 2 3 3 3 1 2 1 2 4 5 4 3 2 1 2 3 4 4 4 4 4 4 4 4 4 4 4 4 4 5 4 4 5 4 4 4 4 4 4
2 2 2 2 2 3 3 3 3 3 5 5 5 5 6 5 4 4 4 4 4 3 3 4 5 5 5 5 5 5 5 4 5 5 5 5 5 5 4 4 4 3 3
2 2 2 3 3 3 3 4 4 4 3 3 4 6 7 7 7 6 5 3 3 3 4 5 5 5 5 5 4 4 4 5 5 5 5 5 5 5 4 4 4 4 4
3 3 2 3 3 4 4 4 4 5 4 4 3 2 6 7 7 5 5 4 4 4 4 5 5 5 5 4 4 4 4 4 5 5 5 5 4 4 4 4 4 3 4
2 2 3 3 4 4 4 4 4 4 4 4 4 4 2 3 3 3 3 4 4 4 4 4 5 5 5 4 4 4 4 4 5 4 4 4 4 4 5 5 4 4 3
3 2 3 4 4 4 4 4 4 5 4 4 5 3 3 4 5 5 4 4 4 4 4 5 4 5 5 4 4 5 5 5 4 4 4 4 4 4 4 4 4 4 4
3 3 3 4 4 4 4 4 5 5 5 5 5 3 3 4 5 5 5 4 4 4 4 4 4 4 4 4 4 5 5 5 4 4 4 4 4 4 4 4 4 4 4
4 4 3 3 4 3 4 5 5 5 5 5 4 4 3 4 4 4 4 4 4 4 4 4 4 4 4 4 4 4 4 5 5 5 5 4 4 4 5 5 5 5 4
4 4 4 4 3 4 4 4 4 4 5 4 4 4 3 3 4 4 4 4 3 3 4 3 3 4 4 4 4 4 4 5 6 5 5 5 5 5 5 5 5 5 5
4 4 4 3 4 3 3 4 4 4 4 3 3 3 3 3 4 4 3 3 3 3 4 4 3 3 4 4 4 4 6 7 7 7 5 4 5 5 5 5 5 5 5
4 4 3 3 3 3 3 3 3 3 3 3 3 3 3 3 3 4 3 3 3 3 3 3 4 4 4 4 4 5 5 5 6 7 6 4 4 4 5 4 5 5 5
Wind_Direction
188 194 201 196 204 224 231 245 270 282 289 290 293 292 280 269 262 258 262 245 249 253 254 252 261 282 282 283 277 272 274 271 272 277 276 267 261 275 271 266 258 254 232
189 191 195 197 198 225 237 256 271 272 281 285 285 280 273 270 264 266 272 266 259 255 253 257 263 263 266 273 278 276 275 273 271 277 276 267 258 259 261 264 267 264 262
188 186 179 182 191 226 243 249 267 283 288 282 272 273 277 280 279 278 276 276 273 271 271 267 265 265 267 271 270 272 272 267 265 268 270 268 265 262 267 264 266 264 263
189 188 184 189 197 221 239 248 257 271 283 292 285 275 274 277 283 291 290 284 279 279 278 276 273 270 270 272 271 270 271 272 265 265 268 263 260 258 259 266 265 255 260
192 196 196 199 200 213 232 252 264 272 277 288 289 287 287 282 301 317 296 286 284 283 283 281 280 289 303 290 288 287 280 273 272 269 270 269 265 266 263 268 271 267 255
198 203 195 198 204 213 221 230 246 259 269 276 276 278 281 304 36 354 303 293 289 289 288 287 279 263 265 253 261 272 277 274 276 277 275 275 269 267 270 271 275 275 271
203 206 201 203 212 217 230 230 241 249 254 270 284 288 293 320 49 315 301 293 292 295 294 292 295 306 295 295 263 241 248 249 258 268 278 279 277 275 272 269 271 275 278
203 215 215 208 210 217 224 236 242 247 253 260 270 279 283 296 72 300 295 276 281 283 284 288 292 300 315 314 301 299 290 276 261 258 271 278 281 281 272 267 271 269 264
203 216 213 205 208 216 223 233 243 246 251 255 262 270 271 286 341 298 293 282 280 282 283 289 292 299 334 313 295 295 294 291 269 255 258 265 276 277 275 272 268 266 267
210 210 202 204 210 218 226 232 231 238 249 259 269 277 274 286 269 260 276 284 292 289 281 275 272 286 314 313 294 298 297 300 304 298 273 255 254 250 241 250 261 264 268
206 193 196 210 217 222 225 225 225 231 250 261 267 268 269 275 250 231 262 279 292 294 299 298 322 119 274 293 289 294 297 294 287 286 284 281 267 259 253 248 257 263 265
226 209 206 219 232 214 212 229 236 240 240 244 247 260 265 256 262 230 232 257 293 293 299 310 347 44 311 288 286 297 291 285 282 287 292 292 290 286 283 278 265 264 267
234 220 217 221 226 232 220 226 237 240 250 259 261 269 276 275 234 197 208 227 249 265 294 328 319 289 273 265 254 264 273 283 290 294 298 301 301 305 299 284 275 266 258
231 227 216 217 222 223 238 240 247 255 259 260 266 274 278 277 288 280 243 224 222 247 274 264 235 240 250 268 274 264 272 289 292 295 299 302 305 299 286 286 280 271 271
239 230 224 224 224 224 230 249 251 262 272 274 273 273 277 281 332 9 325 306 304 304 300 295 298 299 294 296 298 298 294 292 287 289 294 299 300 300 297 292 286 286 281
248 248 251 243 234 237 237 237 219 239 200 235 267 281 285 294 336 344 307 304 311 313 293 291 298 302 300 302 303 300 299 301 298 295 296 298 297 298 299 294 292 288 287
262 260 264 257 242 244 247 249 249 233 212 221 228 240 256 270 265 262 258 262 268 262 262 280 288 295 298 298 298 301 308 312 305 299 301 301 301 301 299 297 296 297 292
261 238 244 251 249 253 255 258 257 260 259 260 224 214 225 232 236 241 239 238 251 230 260 276 284 290 292 295 299 305 311 314 307 300 301 303 302 303 309 306 303 300 294
267 266 262 259 250 252 255 259 263 264 266 271 281 234 204 210 212 224 213 242 266 266 269 279 287 292 292 293 294 298 299 300 303 301 302 302 303 308 312 309 306 306 290
264 269 266 263 258 252 247 249 256 263 270 278 280 284 264 248 261 236 218 246 267 276 283 286 292 297 296 295 291 291 293 293 297 294 303 306 306 307 305 306 311 303 294
274 250 235 262 262 263 262 262 263 263 266 269 273 282 289 280 281 277 268 257 264 276 287 292 295 295 295 295 294 292 291 297 303 301 298 298 299 301 303 306 306 308 308
278 271 260 262 265 265 271 273 270 267 266 267 270 256 220 259 277 278 280 279 276 274 277 281 286 292 302 298 294 295 298 295 293 293 297 296 290 295 299 303 304 302 302
282 281 279 278 277 268 266 268 270 274 277 276 276 281 273 275 281 284 285 286 282 281 289 294 293 298 306 305 306 303 302 304 305 307 301 297 297 295 295 296 297 302 308
280 283 287 287 280 277 278 278 278 280 281 284 285 282 278 278 283 291 296 296 297 296 294 294 300 306 310 312 313 315 323 328 320 313 309 305 300 297 294 295 296 299 300
300 297 291 287 286 288 293 296 297 298 301 305 306 307 307 307 305 305 302 295 294 295 305 308 312 312 307 310 323 335 355 356 339 324 314 303 299 298 295 291 293 295 298
308 304 302 302 303 303 305 309 312 314 315 316 315 314 315 317 322 321 317 313 311 311 318 323 330 325 314 311 341 2 3 354 338 325 313 301 295 298 299 295 292 287 289
Height
1524 1524 1525 1525 1526 1526 1526 1526 1525 1525 1525 1525 1524 1523 1523 1522 1522 1521 1521 1520 1519 1519 1518 1517 1516 1516 1516 1515 1515 1514 1513 1513 1511 1510 1509 1508 1506 1505 1505 1504 1503 1502 1501
1522 1522 1523 1523 1524 1524 1524 1524 1524 1524 1523 1523 1523 1522 1522 1521 1520 1519 1519 1518 1517 1517 1516 1515 1514 1514 1513 1513 1512 1511 1510 1509 1509 1507 1506 1505 1504 1503 1501 1501 1501 1500 1499
1520 1520 1521 1521 1522 1522 1523 1522 1522 1522 1522 1522 1521 1520 1519 1519 1518 1517 1516 1516 1515 1514 1514 1513 1512 1511 1510 1510 1509 1508 1507 1507 1506 1505 1504 1502 1501 1500 1499 1498 1497 1496 1496
1518 1519 1519 1519 1520 1521 1521 1521 1520 1520 1520 1520 1519 1518 1517 1516 1516 1515 1514 1513 1512 1512 1511 1510 1509 1508 1507 1506 1506 1505 1504 1503 1502 1501 1500 1499 1498 1497 1495 1495 1494 1493 1492
1516 1517 1517 1518 1518 1518 1519 1519 1519 1518 1518 1517 1516 1515 1515 1514 1513 1512 1511 1511 1510 1509 1508 1507 1506 1505 1504 1503 1503 1502 1501 1500 1499 1498 1497 1496 1495 1494 1493 1492 1491 1489 1488
1514 1515 1515 1516 1516 1516 1516 1516 1516 1516 1515 1515 1514 1513 1512 1512 1511 1509 1508 1508 1507 1506 1505 1504 1503 1502 1500 1499 1498 1497 1497 1496 1495 1494 1493 1492 1491 1490 1489 1489 1488 1487 1486
1511 1512 1513 1513 1514 1514 1514 1514 1514 1514 1513 1513 1512 1511 1510 1509 1507 1507 1506 1505 1504 1503 1502 1502 1501 1500 1498 1496 1495 1494 1493 1491 1491 1490 1489 1488 1487 1486 1486 1485 1484 1483 1482
1509 1510 1511 1510 1511 1511 1511 1512 1511 1511 1511 1510 1509 1508 1507 1506 1505 1504 1503 1502 1502 1500 1500 1499 1498 1496 1495 1493 1492 1491 1489 1488 1487 1486 1484 1484 1483 1482 1482 1481 1480 1479 1478
1507 1508 1508 1508 1508 1508 1508 1508 1509 1509 1508 1508 1507 1506 1505 1504 1503 1502 1501 1500 1499 1498 1497 1496 1494 1493 1492 1490 1489 1487 1486 1484 1483 1482 1480 1479 1478 1478 1477 1477 1477 1476 1475
1506 1506 1506 1506 1506 1506 1505 1505 1505 1505 1505 1505 1505 1504 1503 1502 1501 1500 1499 1498 1497 1496 1494 1493 1491 1490 1489 1487 1486 1484 1482 1481 1480 1479 1477 1475 1474 1474 1473 1473 1473 1473 1472
1504 1504 1504 1504 1504 1503 1503 1503 1502 1502 1502 1502 1501 1501 1500 1499 1498 1497 1496 1495 1495 1493 1492 1491 1489 1487 1486 1484 1483 1481 1480 1478 1477 1476 1474 1472 1471 1470 1470 1469 1468 1468 1468
1502 1502 1502 1502 1502 1502 1501 1500 1500 1500 1499 1499 1498 1498 1497 1496 1495 1494 1494 1493 1492 1491 1490 1488 1486 1483 1482 1481 1480 1478 1477 1476 1475 1473 1472 1470 1469 1468 1467 1465 1464 1463 1462
1500 1500 1499 1500 1499 1499 1498 1498 1497 1497 1497 1497 1496 1495 1495 1494 1493 1491 1491 1490 1489 1488 1487 1485 1483 1481 1479 1479 1477 1475 1474 1473 1472 1471 1469 1468 1467 1465 1464 1462 1460 1459 1459
1497 1497 1497 1497 1497 1496 1496 1496 1495 1495 1494 1494 1493 1492 1492 1491 1490 1489 1488 1487 1486 1485 1484 1482 1480 1479 1478 1476 1475 1474 1472 1471 1470 1469 1467 1466 1464 1462 1461 1460 1459 1457 1456
1495 1494 1494 1494 1494 1493 1493 1493 1492 1492 1491 1491 1490 1490 1489 1488 1487 1486 1486 1485 1484 1483 1481 1480 1479 1477 1476 1475 1473 1472 1470 1469 1467 1466 1464 1463 1461 1460 1458 1457 1456 1455 1453
1492 1492 1492 1492 1491 1491 1490 1490 1488 1488 1488 1487 1486 1486 1485 1485 1484 1483 1483 1482 1481 1480 1479 1477 1476 1475 1474 1472 1471 1469 1468 1466 1465 1463 1462 1460 1459 1457 1456 1455 1454 1452 1451
1490 1489 1489 1489 1488 1488 1488 1487 1486 1486 1485 1484 1483 1482 1482 1481 1480 1480 1479 1479 1478 1477 1476 1475 1474 1473 1471 1470 1469 1467 1466 1464 1462 1461 1459 1458 1456 1455 1453 1452 1451 1450 1449
1488 1488 1487 1486 1486 1486 1485 1485 1484 1484 1483 1481 1480 1479 1478 1478 1477 1477 1476 1475 1475 1474 1473 1473 1471 1470 1469 1467 1466 1465 1463 1462 1460 1458 1457 1455 1454 1452 1451 1450 1449 1448 1446
1486 1486 1485 1484 1483 1483 1482 1482 1482 1481 1480 1479 1478 1477 1475 1475 1474 1473 1473 1472 1472 1471 1470 1470 1469 1467 1466 1464 1463 1462 1460 1459 1457 1456 1455 1453 1451 1450 1449 1448 1447 1445 1444
1483 1483 1482 1481 1481 1480 1479 1479 1478 1477 1476 1475 1475 1474 1473 1472 1471 1470 1469 1469 1469 1468 1467 1467 1465 1464 1463 1461 1460 1459 1458 1456 1455 1453 1452 1451 1449 1448 1447 1446 1445 1443 1442
1481 1480 1479 1479 1478 1477 1477 1476 1475 1474 1473 1472 1472 1471 1470 1470 1469 1468 1467 1466 1465 1465 1464 1463 1462 1461 1460 1458 1457 1456 1454 1453 1452 1450 1449 1448 1447 1446 1445 1444 1443 1442 1440
1479 1478 1477 1476 1475 1475 1474 1473 1473 1472 1470 1470 1469 1468 1467 1466 1466 1465 1464 1463 1462 1461 1461 1460 1459 1458 1456 1455 1454 1453 1451 1450 1448 1447 1446 1445 1445 1444 1443 1442 1441 1440 1439
1476 1476 1475 1474 1473 1472 1471 1470 1469 1468 1467 1467 1466 1465 1464 1463 1462 1462 1460 1460 1459 1458 1457 1456 1455 1454 1453 1452 1451 1450 1448 1447 1445 1444 1443 1442 1442 1441 1441 1440 1439 1438 1437
1474 1473 1472 1471 1470 1469 1468 1467 1466 1465 1465 1464 1463 1462 1461 1460 1460 1459 1458 1457 1456 1455 1454 1453 1452 1450 1449 1448 1448 1446 1445 1443 1442 1441 1440 1439 1439 1438 1438 1437 1436 1435 1434
1471 1470 1469 1468 1468 1467 1466 1465 1464 1463 1462 1461 1460 1460 1459 1458 1457 1456 1454 1453 1453 1452 1451 1450 1449 1447 1446 1445 1444 1443 1442 1441 1440 1439 1437 1437 1436 1435 1435 1434 1434 1433 1432
1469 1468 1467 1466 1465 1464 1463 1463 1462 1461 1460 1459 1459 1458 1457 1456 1455 1453 1452 1451 1450 1449 1448 1447 1446 1444 1443 1442 1441 1440 1439 1438 1437 1436 1435 1434 1433 1432 1432 1431 1431 1430 1429